GW5111 Weather Reports


time (UTC)temp
C
wind
direction
speed
KPH
gust
KPH
rain 1hr
cm
rain 24hr
cm
rain mn
cm
humidity
%
barometer
mb
20260508121841 7 243 1.6 3.2 0.00 0.00 0.00 61 1017.3
20260508121340 7 271 3.2 4.8 0.00 0.00 0.00 60 1017.3
20260508120837 7 275 1.6 4.8 0.00 0.00 0.00 62 1017.2
20260508120335 7 280 4.8 4.8 0.00 0.00 0.00 60 1017.2
20260508115832 7 263 3.2 4.8 0.00 0.00 0.00 61 1017.0
20260508115329 7 276 1.6 4.8 0.00 0.00 0.00 62 1017.0
20260508114826 6 265 1.6 3.2 0.00 0.00 0.00 62 1017.0
20260508114323 6 259 3.2 3.2 0.00 0.00 0.00 63 1017.0
20260508113819 6 276 3.2 4.8 0.00 0.00 0.00 62 1016.9
20260508113318 6 274 1.6 3.2 0.00 0.00 0.00 63 1017.0
20260508112814 6 268 1.6 3.2 0.00 0.00 0.00 64 1016.9
20260508112311 5 274 1.6 3.2 0.00 0.00 0.00 64 1017.0
20260508111807 5 267 1.6 3.2 0.00 0.00 0.00 64 1016.8
20260508111305 5 278 1.6 3.2 0.00 0.00 0.00 64 1016.8
20260508110802 5 271 1.6 3.2 0.00 0.00 0.00 65 1016.6
20260508110300 5 302 0.0 0.0 0.00 0.00 0.00 66 1016.6
20260508105759 4 297 1.6 1.6 0.00 0.00 0.00 66 1016.8
20260508105256 4 281 1.6 1.6 0.00 0.00 0.00 67 1016.6
20260508104753 4 289 1.6 3.2 0.00 0.00 0.00 68 1016.4
20260508104250 3 285 1.6 1.6 0.00 0.00 0.00 69 1016.5
20260508103747 3 287 1.6 1.6 0.00 0.00 0.00 70 1016.5
20260508103244 3 293 1.6 1.6 0.00 0.00 0.00 70 1016.5
20260508102741 3 307 1.6 3.2 0.00 0.00 0.00 70 1016.4
20260508102239 3 311 1.6 3.2 0.00 0.00 0.00 71 1016.3
20260508101736 3 312 3.2 3.2 0.00 0.00 0.00 71 1016.4
20260508101234 3 315 3.2 3.2 0.00 0.00 0.00 71 1016.2
20260508100732 3 312 3.2 3.2 0.00 0.00 0.00 72 1016.3
20260508100229 3 326 3.2 4.8 0.00 0.00 0.00 72 1016.4
20260508095725 3 305 3.2 3.2 0.00 0.00 0.00 72 1016.1
20260508095223 3 305 3.2 3.2 0.00 0.00 0.00 71 1016.1
20260508094719 2 304 3.2 3.2 0.00 0.00 0.00 71 1016.1
20260508094216 3 296 3.2 4.8 0.00 0.00 0.00 71 1016.1
20260508093713 3 261 1.6 3.2 0.00 0.00 0.00 67 1016.2
20260508093211 4 323 1.6 1.6 0.00 0.00 0.00 65 1016.2
20260508092708 4 327 3.2 3.2 0.00 0.00 0.00 65 1015.9
20260508092206 4 335 1.6 3.2 0.00 0.00 0.00 65 1015.8
20260508091703 4 337 1.6 3.2 0.00 0.00 0.00 66 1016.1
20260508091200 4 339 3.2 3.2 0.00 0.00 0.00 67 1015.9
20260508090658 4 349 4.8 4.8 0.00 0.00 0.00 66 1015.8
20260508090155 4 349 3.2 4.8 0.00 0.00 0.00 66 1015.7
20260508085651 3 345 3.2 4.8 0.00 0.00 0.00 67 1015.6
20260508085149 3 347 3.2 3.2 0.00 0.00 0.00 68 1015.7
20260508084645 3 348 3.2 4.8 0.00 0.00 0.00 68 1015.6
20260508084142 3 21 1.6 3.2 0.00 0.00 0.00 69 1015.6
20260508083640 3 20 1.6 3.2 0.00 0.00 0.00 69 1015.6
20260508083137 3 26 0.0 1.6 0.00 0.00 0.00 70 1015.6
20260508082632 3 29 1.6 1.6 0.00 0.00 0.00 71 1015.6
20260508082130 3 25 3.2 3.2 0.00 0.00 0.00 71 1015.6
20260508081627 3 30 3.2 3.2 0.00 0.00 0.00 72 1015.4
20260508081123 3 36 1.6 4.8 0.00 0.00 0.00 72 1015.5
20260508080621 3 29 3.2 3.2 0.00 0.00 0.00 72 1015.6
20260508080119 3 25 3.2 3.2 0.00 0.00 0.00 73 1015.5
20260508075615 3 28 1.6 3.2 0.00 0.00 0.00 72 1015.4
20260508075112 3 36 3.2 3.2 0.00 0.00 0.00 73 1015.6
20260508074610 3 39 3.2 3.2 0.00 0.00 0.00 72 1015.6
20260508074107 3 51 3.2 4.8 0.00 0.00 0.00 72 1015.4
20260508073604 3 27 3.2 3.2 0.00 0.00 0.00 72 1015.3
20260508073102 3 24 3.2 3.2 0.00 0.00 0.00 73 1015.4
20260508072556 3 22 1.6 3.2 0.00 0.00 0.00 73 1015.4
20260508072054 3 35 3.2 4.8 0.00 0.00 0.00 73 1015.6
20260508071552 3 35 3.2 4.8 0.00 0.00 0.00 73 1015.5
20260508071050 3 47 1.6 3.2 0.00 0.00 0.00 73 1015.4
20260508070547 3 50 3.2 4.8 0.00 0.00 0.00 73 1015.4
20260508070045 3 30 1.6 4.8 0.00 0.00 0.00 73 1015.4
20260508065543 3 29 3.2 6.4 0.00 0.00 0.00 73 1015.5
20260508065041 3 33 3.2 4.8 0.00 0.00 0.00 73 1015.5
20260508064538 3 71 3.2 4.8 0.00 0.00 0.00 73 1015.5
20260508064036 3 42 3.2 4.8 0.00 0.00 0.00 74 1015.5
20260508063533 3 31 3.2 6.4 0.00 0.00 0.00 73 1015.5
20260508063031 3 12 4.8 9.7 0.00 0.00 0.00 73 1015.6
20260508062528 3 20 3.2 4.8 0.00 0.00 0.00 74 1015.7
20260508062024 3 37 4.8 6.4 0.00 0.00 0.00 74 1015.7
20260508061523 3 22 3.2 4.8 0.00 0.00 0.00 74 1015.7
20260508061019 3 3 3.2 4.8 0.00 0.00 0.00 73 1015.7
20260508060516 3 342 3.2 6.4 0.00 0.00 0.00 74 1015.7
20260508060014 3 7 3.2 9.7 0.00 0.00 0.00 74 1015.7
20260508055509 3 350 3.2 4.8 0.00 0.00 0.00 74 1015.7
20260508055006 3 12 3.2 4.8 0.00 0.00 0.00 73 1015.7
20260508054502 3 352 6.4 9.7 0.00 0.00 0.00 73 1015.7
20260508053959 4 353 3.2 6.4 0.00 0.00 0.00 72 1015.8
20260508053456 4 14 4.8 9.7 0.00 0.00 0.00 72 1015.7
20260508052954 4 358 4.8 4.8 0.00 0.00 0.00 72 1015.6
20260508052451 4 350 4.8 4.8 0.00 0.00 0.00 72 1015.5
20260508051948 4 22 4.8 9.7 0.00 0.00 0.00 71 1015.5
20260508051443 5 1 6.4 9.7 0.00 0.00 0.00 70 1015.4
20260508050940 5 40 6.4 11.3 0.00 0.00 0.00 70 1015.4
20260508050436 4 13 4.8 6.4 0.00 0.00 0.00 71 1015.3
20260508045933 5 32 3.2 6.4 0.00 0.00 0.00 71 1015.3
20260508045431 4 34 4.8 6.4 0.00 0.00 0.00 71 1015.4
20260508044928 4 32 3.2 9.7 0.00 0.00 0.00 71 1015.1
20260508044425 5 2 6.4 6.4 0.00 0.00 0.00 71 1015.3
20260508043920 5 357 6.4 6.4 0.00 0.00 0.00 71 1015.2
20260508043418 5 20 4.8 9.7 0.00 0.00 0.00 70 1015.3
20260508042914 5 344 6.4 11.3 0.00 0.00 0.00 70 1015.3
20260508042412 5 9 8.0 12.9 0.00 0.00 0.00 70 1015.2
20260508041908 5 353 6.4 11.3 0.00 0.00 0.00 71 1015.1
20260508041405 5 8 6.4 16.1 0.00 0.00 0.00 70 1015.3
20260508040901 5 352 4.8 6.4 0.00 0.00 0.00 72 1015.3
20260508040359 5 349 6.4 11.3 0.00 0.00 0.00 73 1015.3
20260508035857 5 17 8.0 11.3 0.00 0.03 0.03 72 1015.1
20260508035353 5 4 3.2 11.3 0.00 0.03 0.03 72 1015.1
20260508034850 5 29 3.2 12.9 0.00 0.03 0.03 73 1015.0
20260508034347 5 338 3.2 4.8 0.00 0.03 0.03 73 1015.1
20260508033844 5 333 4.8 6.4 0.00 0.03 0.03 73 1015.1
20260508033342 5 350 4.8 9.7 0.00 0.03 0.03 73 1015.1
20260508032839 5 320 3.2 4.8 0.00 0.03 0.03 73 1015.2
20260508032337 6 5 4.8 11.3 0.00 0.03 0.03 73 1015.1
20260508031833 6 21 4.8 12.9 0.00 0.03 0.03 73 1015.1
20260508031330 6 32 6.4 11.3 0.00 0.03 0.03 74 1015.0
20260508030826 6 37 9.7 12.9 0.00 0.03 0.03 74 1015.1
20260508030324 6 2 6.4 11.3 0.00 0.03 0.03 75 1014.7
20260508025820 6 0 3.2 6.4 0.00 0.03 0.03 76 1014.7
20260508025318 6 318 4.8 11.3 0.00 0.03 0.03 76 1014.8
20260508024814 6 17 4.8 6.4 0.00 0.03 0.03 76 1014.7
20260508024310 6 352 4.8 6.4 0.00 0.03 0.03 76 1014.7
20260508023808 6 333 4.8 6.4 0.00 0.03 0.03 75 1014.6
20260508023304 6 351 4.8 9.7 0.00 0.03 0.03 75 1014.6
20260508022800 6 15 3.2 9.7 0.00 0.03 0.03 75 1014.5
20260508022257 6 358 8.0 9.7 0.00 0.03 0.03 75 1014.4
20260508021754 6 11 6.4 11.3 0.00 0.03 0.03 74 1014.4
20260508021249 6 349 8.0 11.3 0.00 0.03 0.03 74 1014.3
20260508020746 7 356 11.3 16.1 0.00 0.03 0.03 73 1014.3
20260508020244 6 28 3.2 11.3 0.00 0.03 0.03 75 1014.1
20260508015741 6 5 6.4 11.3 0.00 0.03 0.03 75 1014.0
20260508015238 6 16 6.4 11.3 0.00 0.03 0.03 74 1014.0
20260508014735 7 352 6.4 12.9 0.00 0.03 0.03 73 1014.1
20260508014232 7 353 4.8 4.8 0.00 0.03 0.03 75 1014.2
20260508013727 7 24 4.8 11.3 0.00 0.03 0.03 75 1014.0
20260508013224 7 334 8.0 9.7 0.00 0.03 0.03 75 1013.9
20260508012722 7 40 6.4 12.9 0.00 0.03 0.03 75 1013.9
20260508012218 7 359 6.4 9.7 0.00 0.03 0.03 76 1013.9
20260508011717 7 357 8.0 9.7 0.00 0.03 0.03 75 1013.7
20260508011214 7 1 3.2 12.9 0.00 0.03 0.03 75 1013.6
20260508010710 7 353 8.0 12.9 0.00 0.03 0.03 75 1013.6
20260508010208 7 20 6.4 11.3 0.00 0.03 0.03 74 1013.5
20260508005706 7 349 9.7 11.3 0.00 0.03 0.03 74 1013.5
20260508005202 7 348 8.0 9.7 0.00 0.03 0.03 74 1013.6
20260508004657 7 334 3.2 9.7 0.00 0.03 0.03 74 1013.5
20260508004154 7 6 6.4 9.7 0.00 0.03 0.03 74 1013.6
20260508003651 7 359 8.0 9.7 0.00 0.03 0.03 74 1013.5
20260508003148 7 20 8.0 11.3 0.00 0.03 0.03 74 1013.3
20260508002644 7 324 9.7 12.9 0.00 0.03 0.03 76 1013.2
20260508002142 8 307 1.6 3.2 0.00 0.03 0.03 74 1013.2
20260508001637 8 315 4.8 6.4 0.00 0.03 0.03 73 1013.3
20260508001134 8 316 3.2 9.7 0.00 0.03 0.03 72 1013.3
20260508000629 8 316 4.8 9.7 0.00 0.03 0.03 71 1013.1
20260508000127 8 315 4.8 11.3 0.00 0.03 0.03 71 1013.2
20260507235624 8 341 9.7 12.9 0.00 0.03 0.03 71 1013.1
20260507235121 8 329 8.0 9.7 0.00 0.03 0.03 70 1013.2
20260507234618 8 343 11.3 14.5 0.00 0.03 0.03 70 1013.2
20260507234114 9 312 6.4 12.9 0.00 0.03 0.03 70 1013.0
20260507233611 9 348 9.7 16.1 0.00 0.03 0.03 69 1013.1
20260507233110 9 355 11.3 14.5 0.00 0.03 0.03 69 1013.0
20260507232605 10 328 9.7 11.3 0.00 0.03 0.03 68 1013.1
20260507232103 10 334 3.2 11.3 0.00 0.03 0.03 70 1012.9
20260507231559 10 296 4.8 9.7 0.00 0.03 0.03 69 1012.7
20260507231057 10 336 8.0 14.5 0.00 0.03 0.03 70 1013.0
20260507230553 10 349 8.0 12.9 0.00 0.03 0.03 68 1012.9
20260507230050 11 328 4.8 12.9 0.00 0.03 0.03 66 1012.6
20260507225544 11 34 4.8 11.3 0.00 0.03 0.03 68 1012.7
20260507225041 11 38 6.4 12.9 0.00 0.03 0.03 69 1012.9
20260507224537 11 355 8.0 12.9 0.00 0.03 0.03 69 1012.9
20260507224034 10 347 9.7 14.5 0.00 0.03 0.03 68 1012.7
20260507223530 11 315 9.7 14.5 0.00 0.03 0.03 69 1012.6
20260507223027 11 341 12.9 16.1 0.00 0.03 0.03 67 1012.4
20260507222524 12 338 9.7 14.5 0.00 0.03 0.03 67 1012.4
20260507222020 11 294 11.3 29.0 0.00 0.03 0.03 64 1012.3
20260507221517 11 16 9.7 17.7 0.00 0.03 0.03 66 1012.4
20260507221014 11 330 14.5 25.7 0.00 0.03 0.03 65 1012.4
20260507220511 11 313 9.7 22.5 0.00 0.03 0.03 67 1012.3
20260507220008 11 322 6.4 14.5 0.00 0.03 0.03 70 1012.2
20260507215504 11 350 9.7 14.5 0.00 0.03 0.03 72 1012.2
20260507215003 10 10 12.9 17.7 0.00 0.03 0.03 73 1012.2
20260507214459 10 297 4.8 17.7 0.00 0.03 0.03 74 1012.3
20260507213955 10 320 11.3 12.9 0.00 0.03 0.03 73 1012.3
20260507213452 10 344 8.0 14.5 0.00 0.03 0.03 72 1012.3
20260507212948 10 333 8.0 12.9 0.00 0.03 0.03 73 1012.2
20260507212444 10 301 11.3 12.9 0.00 0.03 0.03 73 1012.0
20260507211942 10 286 11.3 16.1 0.00 0.03 0.03 75 1012.1
20260507211438 9 13 9.7 14.5 0.00 0.03 0.03 75 1012.0
20260507210935 10 340 4.8 12.9 0.00 0.03 0.03 75 1012.0
20260507210432 10 17 11.3 16.1 0.00 0.03 0.03 75 1011.9
20260507205928 10 326 9.7 14.5 0.00 0.03 0.03 76 1011.9
20260507205426 10 347 6.4 16.1 0.00 0.03 0.03 74 1011.8
20260507204922 10 84 3.2 9.7 0.00 0.03 0.03 76 1011.9
20260507204418 10 68 4.8 9.7 0.00 0.03 0.03 76 1011.9
20260507203916 10 357 8.0 9.7 0.00 0.03 0.03 75 1011.9
20260507203414 10 3 9.7 14.5 0.00 0.03 0.03 72 1011.8
20260507202910 10 300 11.3 17.7 0.00 0.03 0.03 70 1011.9
20260507202406 11 298 19.3 25.7 0.00 0.03 0.03 70 1011.9
20260507201902 11 298 19.3 25.7 0.00 0.03 0.03 70 1011.9
20260507201358 11 301 11.3 20.9 0.00 0.03 0.03 71 1011.8
20260507200854 11 65 8.0 11.3 0.00 0.03 0.03 77 1011.9
20260507200350 10 27 9.7 17.7 0.00 0.03 0.03 78 1012.3
20260507195846 9 323 6.4 11.3 0.00 0.03 0.03 78 1012.3
20260507195344 10 313 8.0 14.5 0.00 0.03 0.03 77 1012.3
20260507194841 10 294 14.5 24.1 0.00 0.03 0.03 76 1012.1
20260507194337 10 345 3.2 14.5 0.00 0.03 0.03 79 1012.3
20260507193834 9 348 6.4 14.5 0.00 0.03 0.03 79 1012.2
20260507193331 9 1 14.5 17.7 0.00 0.03 0.03 80 1012.3
20260507192827 9 326 8.0 14.5 0.00 0.03 0.03 78 1012.4
20260507192324 9 322 14.5 17.7 0.00 0.03 0.03 79 1012.4
20260507191820 9 2 12.9 20.9 0.00 0.03 0.03 79 1012.4
20260507191316 10 25 6.4 16.1 0.00 0.03 0.03 78 1012.4
20260507190813 9 11 3.2 9.7 0.00 0.03 0.03 79 1012.4
20260507190312 9 302 9.7 12.9 0.00 0.03 0.03 78 1012.5
20260507185810 10 355 14.5 20.9 0.00 0.03 0.03 74 1012.5
20260507185306 10 289 12.9 17.7 0.00 0.03 0.03 73 1012.6
20260507184805 11 329 17.7 24.1 0.00 0.03 0.03 75 1012.9
20260507184303 11 293 9.7 14.5 0.00 0.03 0.03 77 1012.6
20260507183759 10 343 8.0 14.5 0.00 0.03 0.03 75 1012.6
20260507183256 10 321 9.7 20.9 0.00 0.03 0.03 73 1012.7
20260507182754 10 337 6.4 12.9 0.00 0.03 0.03 76 1012.6
20260507182253 10 20 9.7 11.3 0.00 0.03 0.03 76 1012.4
20260507181751 11 344 9.7 17.7 0.00 0.03 0.03 73 1012.5
20260507181247 11 349 16.1 17.7 0.00 0.03 0.03 73 1012.3
20260507180744 11 289 8.0 14.5 0.00 0.03 0.03 72 1012.3
20260507180241 10 359 4.8 14.5 0.00 0.03 0.03 78 1012.5
20260507175736 10 17 8.0 14.5 0.00 0.03 0.03 75 1012.6
20260507175233 9 322 6.4 11.3 0.00 0.03 0.03 79 1012.6
20260507174731 8 351 6.4 14.5 0.00 0.03 0.03 79 1012.7
20260507174228 8 309 11.3 17.7 0.00 0.03 0.03 77 1013.1
20260507173726 9 348 8.0 16.1 0.00 0.03 0.03 75 1012.7
20260507173222 9 339 12.9 16.1 0.00 0.03 0.03 75 1012.6
20260507172719 9 0 6.4 12.9 0.00 0.03 0.03 77 1012.6
20260507172216 9 345 14.5 17.7 0.00 0.03 0.03 76 1012.6
20260507171716 8 291 6.4 12.9 0.00 0.03 0.03 77 1012.6
20260507171214 8 39 6.4 16.1 0.00 0.03 0.03 76 1012.6
20260507170710 8 297 12.9 22.5 0.00 0.03 0.03 76 1012.6
20260507170208 8 11 9.7 12.9 0.00 0.03 0.03 77 1012.7
20260507165703 8 352 9.7 16.1 0.00 0.03 0.03 79 1012.7
20260507165159 8 348 3.2 11.3 0.00 0.03 0.03 78 1012.9
20260507164655 9 350 9.7 17.7 0.00 0.03 0.03 76 1013.0
20260507164153 9 336 6.4 14.5 0.00 0.03 0.03 78 1013.0
20260507163650 10 310 9.7 14.5 0.00 0.03 0.03 77 1012.9
20260507163148 10 345 4.8 11.3 0.00 0.03 0.03 77 1013.0
20260507162643 9 355 4.8 11.3 0.00 0.03 0.03 80 1013.0
20260507162140 8 352 6.4 11.3 0.00 0.03 0.03 82 1013.0
20260507161636 8 64 6.4 14.5 0.00 0.03 0.03 81 1013.0
20260507161133 8 37 4.8 11.3 0.00 0.03 0.03 82 1012.9
20260507160629 8 323 8.0 12.9 0.00 0.03 0.03 82 1013.0
20260507160126 8 118 3.2 4.8 0.00 0.03 0.03 84 1013.0
20260507155621 8 17 1.6 12.9 0.00 0.03 0.03 83 1013.2
20260507155118 7 42 6.4 12.9 0.00 0.03 0.03 83 1013.0
20260507154615 8 55 6.4 11.3 0.00 0.03 0.03 83 1013.0
20260507154112 8 32 6.4 6.4 0.00 0.03 0.03 87 1013.0
20260507153609 7 52 3.2 6.4 0.00 0.03 0.03 85 1013.2
20260507153106 7 0 4.8 12.9 0.00 0.03 0.03 85 1013.2
20260507152602 7 20 8.0 12.9 0.00 0.03 0.03 85 1013.0
20260507152058 7 51 3.2 14.5 0.00 0.03 0.03 83 1013.0
20260507151554 6 352 1.6 12.9 0.00 0.03 0.03 83 1013.2
20260507151051 7 320 9.7 12.9 0.00 0.03 0.03 81 1013.2
20260507150548 7 350 8.0 16.1 0.00 0.03 0.03 85 1013.0
20260507150045 7 356 4.8 11.3 0.00 0.03 0.03 86 1013.3
20260507145540 7 50 11.3 16.1 0.00 0.03 0.03 83 1013.0
20260507145038 6 68 11.3 16.1 0.00 0.03 0.03 83 1013.1
20260507144534 6 72 4.8 20.9 0.00 0.03 0.03 87 1013.0
20260507144032 6 78 4.8 16.1 0.00 0.03 0.03 85 1013.0
20260507143528 6 25 4.8 12.9 0.00 0.03 0.03 87 1013.1
20260507143026 6 58 9.7 17.7 0.00 0.03 0.03 90 1013.1
20260507142522 6 59 6.4 16.1 0.00 0.03 0.03 91 1013.1
20260507142019 6 27 9.7 16.1 0.00 0.03 0.03 91 1013.0
20260507141515 5 17 8.0 11.3 0.00 0.03 0.03 91 1013.1
20260507141011 5 83 8.0 16.1 0.00 0.03 0.03 91 1013.2
20260507140508 5 25 8.0 16.1 0.00 0.03 0.03 91 1013.3
20260507140006 5 330 11.3 16.1 0.00 0.03 0.03 93 1013.2
20260507135502 5 63 12.9 24.1 0.00 0.03 0.03 92 1013.3
20260507134959 5 53 11.3 16.1 0.00 0.03 0.03 94 1013.1
20260507134455 5 57 11.3 14.5 0.00 0.03 0.03 95 1013.3
20260507133952 5 72 6.4 11.3 0.00 0.03 0.03 95 1013.4
20260507133448 5 58 11.3 17.7 0.00 0.03 0.03 95 1013.3
20260507132947 5 49 8.0 20.9 0.00 0.03 0.03 96 1013.3
20260507132442 5 61 6.4 9.7 0.00 0.03 0.03 96 1013.5
20260507131938 5 71 6.4 12.9 0.00 0.03 0.03 97 1013.3
20260507131436 5 59 11.3 16.1 0.00 0.03 0.03 97 1013.4
20260507130933 5 51 8.0 12.9 0.00 0.03 0.03 98 1013.5
20260507130430 5 24 12.9 20.9 0.00 0.03 0.03 97 1013.4
20260507125929 5 24 11.3 12.9 0.00 0.03 0.03 98 1013.6
20260507125426 5 53 9.7 16.1 0.00 0.03 0.03 98 1013.4
20260507124924 5 22 6.4 11.3 0.00 0.03 0.03 98 1013.6
20260507124419 5 33 12.9 14.5 0.00 0.03 0.03 97 1013.6
20260507123918 5 56 9.7 16.1 0.00 0.03 0.03 97 1013.6
20260507123415 5 12 8.0 17.7 0.00 0.03 0.03 98 1013.7
20260507122911 5 30 8.0 16.1 0.00 0.03 0.03 98 1013.9
20260507122406 5 27 9.7 16.1 0.00 0.03 0.03 99 1013.5